QPF
0.00 0.00 0.00 0.00 0.00 0.00 0.00 0.00 0.00 0.00 0.00 0.00 0.00 0.00 0.00 0.00 0.00 0.05 0.01 0.00 0.00 0.00 0.00 0.00 0.00 0.00 0.00 0.00 0.00 0.00 0.00 0.00 0.00 0.00 0.00 0.00 0.00 0.00 0.00 0.00 0.00 0.01 0.01 0.00 0.00 0.00 0.00 0.00 0.00
0.00 0.00 0.00 0.00 0.00 0.00 0.00 0.00 0.00 0.00 0.00 0.00 0.00 0.00 0.00 0.00 0.00 0.00 0.00 0.00 0.00 0.00 0.00 0.00 0.00 0.00 0.00 0.00 0.00 0.00 0.00 0.00 0.00 0.00 0.00 0.00 0.00 0.00 0.00 0.00 0.00 0.00 0.00 0.00 0.00 0.00 0.00 0.00 0.00
0.00 0.00 0.00 0.00 0.00 0.00 0.00 0.00 0.00 0.00 0.00 0.00 0.00 0.00 0.00 0.00 0.00 0.00 0.00 0.00 0.00 0.00 0.00 0.00 0.00 0.00 0.00 0.00 0.00 0.00 0.00 0.00 0.00 0.00 0.00 0.00 0.01 0.01 0.03 0.01 0.00 0.00 0.00 0.00 0.00 0.00 0.00 0.00 0.00
0.00 0.00 0.00 0.00 0.00 0.00 0.00 0.00 0.00 0.00 0.00 0.00 0.00 0.00 0.00 0.00 0.00 0.00 0.00 0.00 0.00 0.00 0.00 0.00 0.00 0.00 0.00 0.00 0.00 0.00 0.00 0.00 0.00 0.00 0.00 0.06 0.05 0.07 0.06 0.04 0.01 0.00 0.00 0.00 0.00 0.00 0.00 0.00 0.00
0.00 0.00 0.00 0.00 0.00 0.00 0.00 0.00 0.00 0.00 0.00 0.00 0.00 0.00 0.00 0.00 0.00 0.00 0.00 0.00 0.00 0.00 0.00 0.00 0.00 0.00 0.00 0.00 0.00 0.00 0.00 0.00 0.00 0.00 0.00 0.01 0.02 0.04 0.04 0.03 0.02 0.02 0.02 0.00 0.00 0.00 0.00 0.00 0.00
0.00 0.00 0.00 0.00 0.00 0.00 0.00 0.00 0.00 0.00 0.00 0.00 0.00 0.00 0.00 0.00 0.00 0.00 0.00 0.00 0.00 0.00 0.00 0.00 0.00 0.00 0.00 0.00 0.00 0.00 0.00 0.00 0.00 0.00 0.00 0.00 0.01 0.01 0.02 0.02 0.03 0.05 0.04 0.03 0.00 0.00 0.00 0.00 0.00
0.00 0.00 0.00 0.00 0.00 0.00 0.00 0.00 0.00 0.00 0.00 0.00 0.00 0.00 0.00 0.00 0.00 0.00 0.00 0.00 0.00 0.00 0.00 0.00 0.00 0.00 0.00 0.00 0.00 0.00 0.00 0.00 0.00 0.00 0.00 0.00 0.01 0.00 0.00 0.01 0.02 0.02 0.01 0.01 0.00 0.00 0.00 0.00 0.00
0.00 0.00 0.00 0.00 0.00 0.00 0.00 0.00 0.00 0.00 0.00 0.00 0.00 0.00 0.00 0.00 0.00 0.00 0.00 0.00 0.00 0.00 0.00 0.00 0.00 0.00 0.00 0.00 0.00 0.00 0.00 0.00 0.00 0.00 0.00 0.01 0.02 0.02 0.00 0.01 0.01 0.01 0.01 0.01 0.01 0.00 0.00 0.00 0.00
0.00 0.00 0.00 0.00 0.00 0.00 0.00 0.00 0.00 0.00 0.00 0.00 0.00 0.00 0.00 0.00 0.00 0.00 0.00 0.00 0.00 0.00 0.00 0.00 0.00 0.00 0.00 0.00 0.00 0.00 0.00 0.00 0.00 0.00 0.00 0.01 0.01 0.07 0.17 0.16 0.15 0.06 0.09 0.10 0.07 0.05 0.02 0.00 0.00
0.00 0.00 0.00 0.00 0.00 0.00 0.00 0.00 0.00 0.00 0.00 0.00 0.00 0.00 0.00 0.00 0.00 0.00 0.00 0.00 0.00 0.00 0.00 0.00 0.00 0.00 0.00 0.00 0.00 0.00 0.00 0.00 0.00 0.00 0.00 0.00 0.01 0.04 0.18 0.23 0.31 0.24 0.16 0.11 0.04 0.04 0.02 0.00 0.00
0.00 0.00 0.00 0.00 0.00 0.00 0.00 0.00 0.00 0.00 0.00 0.00 0.00 0.00 0.00 0.00 0.00 0.00 0.00 0.00 0.00 0.00 0.00 0.00 0.00 0.00 0.00 0.00 0.00 0.00 0.00 0.00 0.00 0.00 0.00 0.00 0.00 0.00 0.01 0.03 0.13 0.19 0.31 0.21 0.10 0.01 0.04 0.06 0.01
0.00 0.00 0.00 0.00 0.00 0.00 0.00 0.00 0.00 0.00 0.00 0.00 0.00 0.00 0.00 0.00 0.00 0.00 0.00 0.00 0.00 0.00 0.00 0.00 0.00 0.00 0.00 0.00 0.00 0.00 0.00 0.00 0.00 0.00 0.00 0.00 0.00 0.00 0.00 0.00 0.00 0.01 0.10 0.24 0.24 0.21 0.20 0.25 0.09
0.00 0.00 0.00 0.00 0.00 0.00 0.00 0.00 0.00 0.00 0.00 0.00 0.00 0.00 0.00 0.00 0.00 0.00 0.00 0.00 0.00 0.00 0.00 0.00 0.00 0.00 0.00 0.00 0.00 0.00 0.00 0.00 0.00 0.00 0.00 0.00 0.00 0.00 0.00 0.00 0.00 0.00 0.00 0.02 0.05 0.13 0.28 0.40 0.33
0.00 0.00 0.00 0.00 0.00 0.00 0.00 0.00 0.00 0.00 0.00 0.00 0.00 0.00 0.00 0.00 0.00 0.00 0.00 0.00 0.00 0.00 0.00 0.00 0.00 0.00 0.00 0.00 0.00 0.00 0.00 0.00 0.00 0.00 0.00 0.00 0.00 0.00 0.00 0.00 0.00 0.00 0.00 0.00 0.00 0.01 0.07 0.10 0.19
0.00 0.00 0.00 0.00 0.00 0.00 0.00 0.00 0.00 0.00 0.00 0.00 0.00 0.00 0.00 0.00 0.00 0.00 0.00 0.00 0.00 0.00 0.00 0.00 0.00 0.00 0.00 0.00 0.00 0.00 0.00 0.00 0.00 0.00 0.00 0.00 0.00 0.00 0.00 0.00 0.00 0.00 0.00 0.00 0.00 0.00 0.01 0.01 0.03
0.00 0.00 0.00 0.00 0.00 0.00 0.00 0.00 0.00 0.00 0.00 0.00 0.00 0.00 0.00 0.00 0.00 0.00 0.00 0.00 0.00 0.00 0.00 0.00 0.00 0.00 0.00 0.00 0.00 0.00 0.00 0.00 0.00 0.00 0.00 0.00 0.00 0.00 0.00 0.00 0.00 0.00 0.00 0.00 0.00 0.00 0.00 0.00 0.00
0.00 0.00 0.00 0.00 0.00 0.00 0.00 0.00 0.00 0.00 0.00 0.00 0.00 0.00 0.00 0.00 0.00 0.00 0.00 0.00 0.00 0.00 0.00 0.00 0.00 0.00 0.00 0.00 0.00 0.00 0.00 0.00 0.00 0.00 0.00 0.00 0.00 0.00 0.00 0.00 0.00 0.00 0.00 0.00 0.00 0.00 0.00 0.00 0.00
0.00 0.00 0.00 0.00 0.00 0.00 0.00 0.00 0.00 0.00 0.00 0.00 0.00 0.00 0.00 0.00 0.00 0.00 0.00 0.00 0.00 0.00 0.00 0.00 0.00 0.00 0.00 0.00 0.00 0.00 0.00 0.00 0.00 0.00 0.00 0.00 0.00 0.00 0.00 0.00 0.00 0.00 0.00 0.00 0.00 0.00 0.00 0.00 0.00
0.00 0.00 0.00 0.00 0.00 0.00 0.00 0.00 0.00 0.00 0.00 0.00 0.00 0.00 0.00 0.00 0.00 0.00 0.00 0.00 0.00 0.00 0.00 0.00 0.00 0.00 0.00 0.00 0.00 0.00 0.00 0.00 0.00 0.00 0.00 0.00 0.00 0.00 0.00 0.00 0.00 0.00 0.00 0.00 0.00 0.00 0.00 0.00 0.00
0.00 0.00 0.00 0.00 0.00 0.00 0.00 0.00 0.00 0.00 0.00 0.00 0.00 0.00 0.00 0.00 0.00 0.00 0.00 0.00 0.00 0.00 0.00 0.00 0.00 0.00 0.00 0.00 0.00 0.00 0.00 0.00 0.00 0.00 0.00 0.00 0.00 0.00 0.00 0.00 0.00 0.00 0.00 0.00 0.00 0.00 0.00 0.00 0.00
0.00 0.00 0.00 0.00 0.00 0.00 0.00 0.00 0.00 0.00 0.00 0.00 0.00 0.00 0.00 0.00 0.00 0.00 0.00 0.00 0.00 0.00 0.00 0.00 0.00 0.00 0.00 0.00 0.00 0.00 0.00 0.00 0.00 0.00 0.00 0.00 0.00 0.00 0.00 0.00 0.00 0.00 0.00 0.00 0.00 0.00 0.00 0.00 0.00
0.00 0.00 0.00 0.00 0.00 0.00 0.00 0.00 0.00 0.00 0.00 0.00 0.00 0.00 0.00 0.00 0.00 0.00 0.00 0.00 0.00 0.00 0.00 0.00 0.00 0.00 0.00 0.00 0.00 0.00 0.00 0.00 0.00 0.00 0.00 0.00 0.00 0.00 0.00 0.00 0.00 0.00 0.00 0.00 0.00 0.00 0.00 0.00 0.00
0.00 0.00 0.00 0.00 0.00 0.00 0.00 0.00 0.00 0.00 0.00 0.00 0.00 0.00 0.00 0.00 0.00 0.00 0.00 0.00 0.00 0.00 0.00 0.00 0.00 0.00 0.00 0.00 0.00 0.00 0.00 0.00 0.00 0.00 0.00 0.00 0.00 0.00 0.00 0.00 0.00 0.00 0.00 0.00 0.00 0.00 0.00 0.00 0.00
0.00 0.00 0.00 0.00 0.00 0.00 0.00 0.00 0.00 0.00 0.00 0.00 0.00 0.00 0.00 0.00 0.00 0.00 0.00 0.00 0.00 0.00 0.00 0.00 0.00 0.00 0.00 0.00 0.00 0.00 0.00 0.00 0.00 0.00 0.00 0.00 0.00 0.00 0.00 0.00 0.00 0.00 0.00 0.00 0.00 0.01 0.00 0.00 0.00
0.00 0.00 0.00 0.00 0.00 0.00 0.00 0.00 0.00 0.00 0.00 0.00 0.00 0.00 0.00 0.00 0.00 0.00 0.00 0.00 0.00 0.00 0.00 0.00 0.00 0.00 0.00 0.00 0.00 0.00 0.00 0.00 0.00 0.00 0.00 0.00 0.00 0.00 0.00 0.00 0.01 0.00 0.01 0.00 0.00 0.00 0.00 0.00 0.01
0.00 0.00 0.00 0.00 0.00 0.00 0.00 0.00 0.00 0.00 0.00 0.00 0.00 0.00 0.00 0.00 0.00 0.00 0.00 0.00 0.00 0.00 0.00 0.00 0.00 0.00 0.00 0.00 0.00 0.00 0.00 0.00 0.00 0.00 0.00 0.01 0.01 0.01 0.01 0.01 0.01 0.01 0.01 0.01 0.01 0.00 0.00 0.00 0.00
0.00 0.00 0.00 0.00 0.00 0.00 0.00 0.00 0.00 0.00 0.00 0.00 0.00 0.00 0.00 0.00 0.00 0.00 0.00 0.00 0.00 0.00 0.00 0.00 0.00 0.00 0.00 0.00 0.00 0.00 0.00 0.00 0.00 0.00 0.01 0.01 0.01 0.01 0.01 0.01 0.01 0.01 0.01 0.00 0.00 0.00 0.00 0.00 0.00
0.00 0.00 0.00 0.00 0.00 0.00 0.00 0.00 0.00 0.00 0.00 0.00 0.00 0.00 0.00 0.00 0.00 0.00 0.00 0.00 0.00 0.00 0.00 0.00 0.00 0.00 0.00 0.00 0.00 0.00 0.00 0.00 0.00 0.00 0.01 0.01 0.01 0.01 0.01 0.01 0.01 0.01 0.01 0.00 0.00 0.00 0.00 0.00 0.00
0.00 0.00 0.00 0.00 0.00 0.00 0.00 0.00 0.00 0.00 0.00 0.00 0.00 0.00 0.00 0.00 0.00 0.00 0.00 0.00 0.00 0.00 0.00 0.00 0.00 0.00 0.00 0.00 0.00 0.00 0.00 0.00 0.00 0.00 0.00 0.00 0.00 0.01 0.01 0.01 0.01 0.00 0.00 0.00 0.00 0.00 0.00 0.00 0.00
0.00 0.00 0.00 0.00 0.00 0.00 0.00 0.00 0.00 0.00 0.00 0.00 0.00 0.00 0.00 0.00 0.00 0.00 0.00 0.00 0.00 0.00 0.00 0.00 0.00 0.00 0.00 0.00 0.00 0.00 0.00 0.00 0.00 0.00 0.00 0.00 0.00 0.01 0.01 0.01 0.00 0.00 0.00 0.00 0.00 0.00 0.00 0.00 0.00
MSLP
1009.45 1007.74 1007.62 1006.58 1006.02 1003.71 1001.24 1000.50 1000.32 1000.68 1001.58 1002.58 1002.80 1003.24 1004.61 1005.11 1005.46 1007.73 1008.55 1008.77 1009.48 1010.30 1010.89 1011.99 1012.33 1012.26 1012.39 1012.57 1012.62 1012.70 1012.78 1012.86 1012.97 1013.03 1013.16 1013.24 1013.36 1013.56 1013.75 1013.86 1013.89 1013.91 1013.93 1014.13 1014.36 1014.45 1014.57 1014.65 1014.64
1009.37 1008.04 1006.59 1005.80 1004.46 1002.14 1000.80 1000.41 1000.51 1001.26 1002.32 1003.19 1003.42 1004.03 1005.36 1006.47 1007.09 1008.28 1008.82 1009.15 1009.63 1010.85 1011.75 1012.48 1012.71 1012.70 1012.82 1012.98 1012.97 1013.04 1013.11 1013.23 1013.23 1013.35 1013.27 1013.36 1013.49 1013.63 1013.79 1013.85 1013.92 1014.02 1014.04 1014.05 1014.17 1014.40 1014.57 1014.65 1014.69
1009.47 1008.00 1006.76 1004.60 1003.11 1001.62 1001.00 1001.20 1001.53 1002.27 1002.90 1003.16 1003.78 1005.23 1006.41 1007.61 1008.23 1009.75 1010.89 1010.57 1010.76 1011.97 1012.99 1013.46 1013.46 1013.35 1013.33 1013.32 1013.34 1013.36 1013.43 1013.48 1013.46 1013.48 1013.47 1013.47 1013.54 1013.62 1013.72 1013.86 1014.02 1014.16 1014.13 1014.11 1014.09 1014.21 1014.29 1014.57 1014.68
1007.85 1006.69 1006.15 1004.12 1002.19 1001.69 1001.64 1002.02 1002.33 1002.80 1003.31 1003.43 1004.37 1006.59 1008.06 1008.51 1010.03 1011.34 1011.58 1011.88 1012.15 1013.13 1013.63 1014.40 1014.33 1014.12 1014.08 1013.98 1013.85 1013.77 1013.71 1013.68 1013.63 1013.67 1013.63 1013.63 1013.43 1013.53 1013.63 1013.73 1013.85 1014.00 1014.18 1014.17 1014.12 1014.10 1014.21 1014.41 1014.50
1006.97 1006.17 1004.71 1003.58 1002.06 1001.84 1002.40 1002.93 1002.94 1002.86 1003.59 1004.18 1005.06 1007.39 1008.71 1010.17 1011.25 1011.89 1012.45 1012.98 1013.25 1014.26 1014.49 1014.76 1014.88 1014.80 1014.66 1014.53 1014.36 1014.19 1014.11 1013.91 1013.84 1013.78 1013.72 1013.62 1013.59 1013.54 1013.50 1013.59 1013.70 1013.73 1013.94 1014.09 1014.08 1014.22 1014.22 1014.30 1014.44
1006.26 1005.21 1004.18 1002.75 1001.44 1001.95 1002.92 1003.48 1003.44 1003.60 1004.22 1004.74 1006.06 1007.91 1009.92 1010.99 1011.82 1012.84 1013.32 1013.80 1014.31 1014.88 1015.12 1015.21 1015.15 1014.99 1014.85 1014.77 1014.70 1014.52 1014.27 1014.10 1014.05 1013.91 1013.77 1013.57 1013.55 1013.58 1013.54 1013.49 1013.54 1013.53 1013.73 1013.85 1014.02 1014.07 1014.19 1014.21 1014.23
1006.01 1004.88 1003.74 1002.55 1002.29 1002.68 1003.33 1004.24 1004.32 1004.35 1004.72 1005.41 1006.47 1008.02 1010.34 1011.60 1012.69 1013.42 1013.98 1014.62 1015.12 1015.48 1015.73 1015.74 1015.66 1015.35 1014.95 1014.85 1014.83 1014.63 1014.44 1014.39 1014.33 1014.17 1014.06 1013.90 1013.70 1013.38 1013.46 1013.56 1013.58 1013.64 1013.66 1013.91 1014.07 1014.16 1014.15 1014.13 1014.08
1005.64 1005.16 1004.10 1002.84 1002.22 1002.38 1003.50 1004.35 1005.26 1005.30 1006.20 1006.57 1007.42 1008.42 1010.35 1011.93 1012.93 1013.84 1014.34 1014.89 1015.51 1016.03 1016.21 1016.24 1016.11 1015.91 1015.39 1014.99 1014.89 1014.77 1014.65 1014.46 1014.45 1014.43 1014.35 1013.99 1013.60 1013.40 1013.39 1013.42 1013.49 1013.55 1013.80 1013.97 1014.02 1013.98 1014.00 1013.88 1013.86
1005.71 1005.47 1004.02 1002.97 1002.11 1003.27 1004.34 1004.52 1005.43 1006.35 1007.18 1008.44 1009.28 1010.16 1011.04 1011.84 1012.49 1013.25 1014.12 1015.00 1015.58 1016.09 1016.54 1016.63 1016.65 1016.54 1016.13 1015.41 1015.38 1015.01 1014.72 1014.63 1014.48 1014.58 1014.62 1014.28 1014.07 1013.73 1013.65 1013.17 1013.28 1012.85 1013.33 1013.62 1013.51 1013.40 1013.56 1013.55 1013.51
1005.48 1004.98 1004.00 1003.96 1003.49 1003.70 1004.87 1005.17 1005.71 1006.66 1007.61 1009.42 1010.36 1011.17 1011.61 1012.06 1012.86 1013.69 1014.50 1015.24 1015.98 1016.52 1016.84 1017.13 1017.17 1017.08 1016.74 1016.04 1015.92 1015.60 1015.24 1015.18 1014.94 1014.88 1014.85 1014.66 1014.40 1014.01 1013.83 1013.54 1013.26 1013.11 1013.21 1013.25 1012.99 1012.68 1012.66 1012.85 1013.05
1004.90 1004.80 1004.73 1004.91 1005.32 1005.20 1005.03 1005.87 1006.18 1006.88 1008.29 1009.32 1010.72 1011.66 1012.32 1013.09 1013.84 1014.38 1014.99 1015.72 1016.38 1016.96 1017.34 1017.54 1017.60 1017.55 1017.29 1016.80 1016.51 1016.18 1015.82 1015.71 1015.49 1015.35 1015.18 1015.13 1014.73 1014.25 1014.08 1013.61 1013.30 1013.09 1012.95 1012.91 1012.55 1012.36 1012.32 1012.54 1012.48
1005.69 1004.95 1005.52 1005.43 1006.22 1006.19 1005.91 1006.54 1007.03 1008.41 1010.02 1010.73 1011.46 1012.34 1013.09 1013.71 1014.49 1015.11 1015.74 1016.23 1016.71 1017.27 1017.74 1017.95 1017.90 1017.86 1017.70 1017.36 1017.32 1016.99 1016.56 1016.18 1016.22 1015.81 1015.50 1015.63 1015.29 1015.02 1014.67 1014.11 1013.63 1013.11 1012.72 1012.62 1012.42 1012.25 1011.88 1011.93 1011.48
1005.84 1005.43 1005.82 1006.05 1006.63 1006.84 1006.89 1007.25 1007.57 1009.25 1010.50 1011.41 1012.26 1013.10 1013.72 1014.20 1015.05 1015.81 1016.28 1016.77 1017.19 1017.54 1018.02 1018.19 1018.10 1018.17 1017.98 1017.61 1017.66 1017.43 1017.05 1016.81 1016.70 1016.18 1015.94 1016.02 1015.72 1015.61 1015.21 1014.70 1014.04 1013.41 1012.63 1012.24 1012.30 1012.29 1012.27 1012.08 1011.45
1006.29 1006.24 1006.09 1006.16 1006.41 1006.70 1007.36 1007.48 1008.20 1009.97 1010.84 1011.69 1012.49 1013.53 1014.30 1014.96 1015.56 1016.23 1016.69 1017.26 1017.54 1017.93 1018.26 1018.51 1018.54 1018.52 1018.44 1018.07 1017.91 1017.65 1017.33 1017.20 1016.87 1016.48 1016.26 1016.18 1016.05 1016.02 1015.76 1015.26 1014.52 1013.79 1013.08 1012.63 1012.26 1012.31 1012.18 1011.85 1011.14
1006.98 1006.67 1006.13 1006.00 1006.24 1006.62 1007.44 1007.61 1008.29 1010.00 1010.98 1011.78 1012.66 1013.69 1014.49 1015.37 1016.17 1016.78 1017.20 1017.52 1017.94 1018.23 1018.56 1018.65 1018.58 1018.65 1018.70 1018.36 1018.07 1017.77 1017.47 1017.34 1017.12 1016.66 1016.54 1016.46 1016.28 1016.43 1016.26 1015.86 1015.32 1014.57 1013.81 1013.25 1012.67 1012.26 1011.87 1011.65 1011.29
1006.98 1006.47 1005.70 1004.53 1005.54 1006.82 1007.59 1007.08 1008.07 1009.83 1010.83 1011.68 1012.65 1013.73 1014.67 1015.63 1016.45 1017.11 1017.53 1017.83 1018.15 1018.68 1018.85 1018.98 1018.99 1018.97 1018.90 1018.44 1018.08 1017.81 1017.54 1017.46 1017.05 1016.85 1016.78 1016.50 1016.55 1016.57 1016.43 1016.21 1015.70 1015.01 1014.43 1013.73 1013.19 1012.79 1012.46 1011.71 1011.15
1006.25 1005.47 1004.81 1004.77 1005.30 1005.92 1007.12 1007.24 1008.40 1009.60 1010.46 1011.18 1012.28 1013.48 1014.56 1015.75 1016.66 1017.58 1018.12 1018.45 1018.63 1019.13 1019.24 1019.25 1019.30 1019.31 1019.15 1018.61 1018.35 1018.11 1017.85 1017.58 1017.31 1017.12 1016.92 1016.69 1016.70 1016.59 1016.55 1016.33 1015.89 1015.50 1014.87 1014.20 1013.55 1012.94 1012.66 1012.18 1011.39
1005.19 1005.01 1004.49 1004.08 1005.26 1006.06 1006.39 1006.97 1007.98 1009.10 1009.66 1010.48 1011.71 1012.86 1014.12 1015.33 1016.88 1018.04 1018.54 1018.90 1018.88 1019.17 1019.30 1019.40 1019.47 1019.54 1019.40 1019.00 1018.91 1018.59 1018.29 1018.06 1017.90 1017.57 1017.13 1016.99 1016.80 1016.72 1016.56 1016.28 1016.05 1015.67 1015.16 1014.45 1013.79 1013.16 1012.66 1012.22 1011.75
1005.87 1005.83 1005.19 1004.56 1005.48 1006.02 1006.63 1006.92 1006.92 1008.19 1009.13 1009.84 1010.79 1011.92 1013.49 1015.03 1016.73 1017.84 1018.58 1018.99 1019.12 1019.49 1019.78 1019.96 1019.92 1019.96 1019.81 1019.70 1019.62 1019.22 1018.99 1018.65 1018.31 1018.03 1017.60 1017.61 1017.34 1017.17 1017.11 1016.71 1016.42 1016.12 1015.61 1015.05 1014.32 1013.57 1012.93 1012.14 1011.67
1006.55 1006.22 1005.90 1005.59 1005.41 1005.66 1006.46 1006.57 1006.37 1006.58 1007.88 1008.95 1010.10 1011.38 1012.95 1014.74 1016.38 1017.52 1018.16 1018.72 1019.26 1019.80 1020.22 1020.38 1020.36 1020.27 1020.27 1020.36 1020.18 1020.02 1019.78 1019.33 1018.76 1018.40 1018.55 1018.23 1018.21 1018.04 1017.75 1017.54 1017.11 1016.61 1016.21 1015.83 1015.19 1014.36 1013.28 1012.39 1011.77
1006.76 1006.70 1006.38 1006.03 1005.67 1005.97 1006.58 1006.30 1005.92 1005.67 1007.07 1008.50 1009.55 1010.75 1012.26 1014.06 1015.59 1017.15 1018.15 1018.92 1019.50 1020.12 1020.47 1020.54 1020.60 1020.59 1020.79 1020.86 1020.58 1020.59 1020.28 1019.80 1019.49 1019.54 1019.32 1019.29 1019.14 1018.76 1018.46 1018.05 1017.67 1017.17 1016.69 1016.15 1015.55 1014.97 1014.20 1013.12 1011.89
1006.46 1006.72 1006.66 1006.77 1006.79 1006.30 1006.04 1005.47 1004.95 1005.54 1006.83 1008.14 1009.58 1010.97 1012.44 1014.24 1015.67 1016.86 1017.92 1018.66 1019.41 1020.20 1020.55 1020.75 1020.86 1020.81 1021.08 1021.29 1021.15 1021.17 1020.99 1020.75 1020.73 1020.50 1020.35 1020.08 1019.70 1019.18 1018.78 1018.26 1017.88 1017.44 1016.95 1016.37 1015.70 1014.97 1014.29 1013.74 1012.66
1006.51 1006.92 1007.25 1007.65 1007.65 1007.24 1006.57 1005.88 1004.95 1004.48 1006.41 1008.04 1009.53 1011.26 1012.61 1014.19 1015.56 1016.67 1017.84 1018.78 1019.35 1020.07 1020.58 1020.95 1020.99 1020.98 1021.41 1021.57 1021.59 1021.54 1021.61 1021.57 1021.33 1021.17 1020.91 1020.53 1020.02 1019.55 1018.95 1018.45 1018.01 1017.54 1016.95 1016.25 1015.54 1014.95 1014.36 1013.81 1013.18
1007.06 1007.51 1007.98 1008.33 1008.42 1007.38 1007.00 1006.23 1004.77 1004.65 1004.98 1006.80 1009.02 1010.72 1012.32 1014.05 1015.72 1016.77 1017.85 1018.73 1019.27 1020.07 1020.73 1021.03 1021.07 1021.15 1021.61 1021.84 1021.94 1022.00 1022.09 1022.07 1021.86 1021.63 1021.37 1020.97 1020.34 1019.70 1019.12 1018.62 1018.07 1017.43 1016.75 1016.02 1015.26 1014.62 1013.92 1013.40 1013.01
1007.53 1008.02 1008.15 1008.33 1008.21 1006.95 1006.50 1005.57 1004.87 1005.13 1005.91 1007.09 1008.73 1010.17 1011.94 1013.81 1015.29 1016.53 1017.51 1018.41 1019.40 1020.32 1020.99 1021.27 1021.37 1021.47 1021.90 1022.15 1022.26 1022.35 1022.46 1022.65 1022.52 1022.34 1021.87 1021.28 1020.66 1019.99 1019.36 1018.74 1018.02 1017.29 1016.73 1016.04 1015.21 1014.41 1013.68 1013.18 1012.72
1007.44 1007.86 1007.54 1007.34 1007.47 1006.94 1006.25 1005.97 1006.59 1006.43 1007.14 1008.19 1009.25 1010.33 1011.92 1013.72 1015.23 1016.44 1017.58 1018.87 1019.84 1020.72 1021.44 1021.83 1021.96 1022.09 1022.35 1022.49 1022.60 1022.76 1022.98 1023.26 1023.08 1022.89 1022.41 1021.80 1021.22 1020.52 1019.73 1019.00 1018.20 1017.45 1016.80 1015.91 1014.96 1014.08 1013.37 1012.65 1012.13
1007.09 1007.38 1008.06 1008.15 1008.14 1008.21 1007.49 1006.76 1007.65 1008.07 1008.82 1009.65 1010.42 1011.06 1012.29 1013.75 1015.22 1016.58 1018.02 1019.48 1020.40 1021.24 1022.06 1022.61 1022.75 1022.81 1022.91 1022.86 1023.05 1023.32 1023.60 1023.67 1023.51 1023.21 1022.86 1022.42 1021.86 1021.10 1020.19 1019.55 1018.73 1017.85 1016.99 1016.10 1015.02 1014.12 1013.18 1011.92 1011.51
1007.06 1007.60 1008.28 1009.01 1008.89 1008.66 1007.70 1007.56 1008.37 1008.87 1009.47 1010.02 1010.53 1011.15 1012.16 1013.17 1014.78 1016.65 1018.32 1019.92 1021.01 1022.00 1022.70 1023.42 1023.55 1023.66 1023.62 1023.39 1023.68 1024.02 1024.22 1024.20 1023.95 1023.54 1023.22 1022.85 1022.27 1021.52 1020.69 1019.92 1019.13 1018.26 1017.37 1016.51 1015.55 1014.65 1013.68 1012.36 1012.15
1007.53 1007.69 1008.36 1008.82 1009.20 1008.99 1008.69 1008.71 1008.97 1009.35 1009.41 1009.92 1010.48 1010.80 1011.44 1012.48 1014.60 1016.98 1018.73 1020.44 1021.84 1023.14 1023.63 1024.22 1024.25 1024.35 1024.30 1024.25 1024.54 1024.54 1024.69 1024.57 1024.30 1023.86 1023.57 1023.14 1022.57 1021.90 1021.24 1020.58 1019.82 1018.91 1017.96 1017.20 1016.32 1015.61 1014.94 1014.07 1013.55
1007.51 1008.06 1008.55 1009.16 1009.37 1009.38 1009.34 1008.80 1008.71 1009.20 1009.72 1010.04 1010.24 1010.39 1010.96 1012.50 1014.93 1017.71 1020.03 1021.39 1022.88 1023.95 1024.38 1024.68 1024.91 1025.08 1025.07 1025.13 1025.14 1025.06 1025.06 1024.94 1024.59 1024.21 1023.81 1023.37 1022.72 1022.07 1021.79 1021.21 1020.52 1019.71 1018.82 1018.02 1017.26 1016.53 1016.05 1015.41 1014.85
Thickness
5789 5800 5802 5798 5764 5781 5787 5798 5814 5798 5792 5804 5805 5791 5774 5780 5766 5727 5779 5781 5779 5770 5765 5755 5753 5752 5749 5747 5746 5745 5743 5742 5740 5739 5737 5735 5733 5730 5727 5725 5724 5723 5722 5720 5717 5715 5713 5712 5712
5786 5794 5799 5785 5762 5766 5790 5809 5797 5798 5796 5799 5799 5784 5768 5754 5777 5768 5768 5775 5773 5766 5753 5748 5744 5744 5742 5739 5739 5737 5736 5735 5735 5733 5734 5731 5728 5726 5724 5723 5721 5719 5718 5716 5715 5713 5711 5710 5709
5781 5791 5772 5774 5774 5768 5775 5793 5790 5793 5796 5791 5782 5776 5767 5752 5765 5756 5758 5762 5763 5752 5740 5734 5733 5733 5733 5733 5732 5731 5730 5729 5728 5728 5727 5726 5724 5722 5721 5720 5716 5714 5713 5712 5712 5710 5710 5708 5707
5784 5785 5778 5762 5770 5786 5782 5784 5789 5784 5788 5792 5775 5744 5755 5763 5751 5750 5750 5747 5744 5735 5730 5724 5723 5724 5723 5723 5723 5723 5723 5722 5722 5721 5720 5719 5720 5718 5717 5716 5715 5711 5709 5708 5708 5708 5706 5705 5706
5785 5775 5757 5758 5775 5779 5784 5783 5788 5777 5774 5776 5764 5734 5734 5745 5747 5741 5736 5733 5731 5722 5718 5715 5714 5714 5714 5714 5715 5715 5715 5716 5716 5715 5715 5715 5715 5714 5714 5713 5712 5711 5706 5704 5704 5703 5703 5703 5701
5761 5774 5749 5754 5783 5778 5777 5780 5780 5772 5770 5769 5747 5731 5727 5740 5734 5727 5726 5721 5716 5712 5708 5707 5707 5708 5708 5708 5707 5708 5709 5710 5709 5710 5711 5711 5711 5710 5709 5708 5708 5707 5704 5702 5701 5700 5698 5699 5699
5752 5755 5752 5766 5768 5760 5762 5774 5763 5763 5759 5752 5753 5721 5725 5723 5723 5719 5715 5710 5706 5703 5700 5699 5698 5700 5702 5701 5701 5702 5703 5703 5703 5703 5704 5704 5705 5707 5705 5703 5702 5700 5700 5696 5695 5693 5693 5693 5695
5760 5754 5746 5762 5763 5759 5762 5762 5760 5754 5736 5756 5746 5715 5715 5716 5716 5711 5708 5704 5699 5694 5691 5690 5690 5690 5694 5696 5695 5696 5696 5697 5696 5695 5697 5699 5701 5702 5700 5699 5695 5693 5690 5687 5688 5689 5689 5691 5691
5766 5733 5737 5757 5767 5748 5755 5750 5757 5756 5732 5729 5726 5714 5717 5720 5717 5710 5703 5696 5692 5688 5684 5683 5682 5681 5683 5687 5686 5688 5689 5690 5690 5689 5688 5690 5692 5694 5692 5694 5690 5685 5687 5685 5686 5688 5688 5690 5690
5744 5734 5742 5756 5757 5749 5746 5746 5741 5736 5721 5712 5709 5711 5712 5713 5706 5697 5692 5687 5682 5679 5678 5676 5674 5673 5674 5677 5677 5678 5680 5680 5681 5681 5681 5681 5683 5685 5685 5686 5686 5686 5684 5683 5686 5690 5691 5690 5687
5747 5731 5741 5742 5742 5744 5741 5736 5740 5730 5703 5715 5703 5699 5699 5695 5690 5687 5684 5679 5675 5672 5669 5667 5665 5664 5665 5668 5668 5669 5671 5670 5671 5671 5672 5672 5673 5676 5676 5678 5680 5678 5679 5680 5684 5686 5687 5681 5681
5721 5739 5734 5734 5734 5731 5727 5730 5721 5713 5697 5703 5703 5697 5690 5685 5679 5676 5672 5671 5669 5665 5661 5659 5658 5657 5657 5658 5656 5657 5658 5659 5657 5659 5660 5659 5661 5662 5664 5666 5668 5672 5674 5674 5676 5678 5681 5678 5681
5717 5724 5728 5726 5724 5721 5724 5714 5713 5704 5700 5698 5691 5686 5681 5678 5673 5668 5667 5663 5660 5657 5652 5649 5649 5647 5647 5648 5646 5646 5647 5646 5645 5647 5648 5646 5647 5647 5649 5652 5655 5659 5665 5668 5669 5668 5667 5667 5675
5714 5714 5718 5721 5719 5719 5706 5708 5709 5696 5696 5688 5683 5674 5671 5667 5665 5660 5657 5652 5650 5647 5643 5640 5639 5637 5635 5636 5636 5636 5636 5634 5634 5635 5635 5634 5634 5633 5634 5637 5641 5645 5649 5652 5658 5657 5657 5657 5668
5704 5695 5708 5712 5713 5708 5708 5694 5693 5694 5688 5680 5676 5669 5665 5659 5654 5648 5646 5643 5640 5637 5633 5630 5629 5626 5624 5624 5624 5623 5623 5621 5621 5622 5620 5618 5619 5616 5616 5618 5622 5626 5633 5637 5642 5642 5646 5647 5654
5688 5695 5685 5717 5713 5703 5697 5684 5689 5691 5682 5674 5669 5662 5656 5649 5644 5639 5636 5633 5629 5623 5620 5618 5615 5613 5612 5613 5612 5611 5610 5607 5607 5606 5604 5603 5602 5600 5600 5600 5603 5607 5612 5618 5622 5625 5627 5633 5641
5689 5680 5692 5695 5711 5702 5693 5685 5683 5685 5677 5671 5665 5657 5649 5640 5635 5627 5622 5619 5616 5610 5607 5604 5601 5598 5597 5598 5597 5595 5593 5591 5588 5586 5585 5585 5584 5584 5583 5584 5585 5587 5593 5599 5604 5609 5610 5615 5623
5683 5684 5697 5701 5695 5693 5689 5688 5680 5678 5676 5669 5661 5654 5645 5636 5624 5614 5610 5605 5604 5599 5596 5592 5588 5584 5582 5581 5579 5577 5574 5570 5566 5564 5564 5562 5563 5563 5564 5567 5568 5570 5574 5581 5586 5592 5597 5600 5605
5682 5679 5681 5699 5693 5678 5678 5679 5685 5671 5669 5665 5661 5652 5641 5630 5617 5607 5599 5594 5591 5584 5579 5575 5572 5569 5566 5561 5556 5554 5551 5548 5546 5542 5541 5539 5538 5538 5539 5542 5545 5547 5552 5559 5566 5572 5579 5587 5590
5672 5669 5671 5686 5695 5682 5666 5671 5682 5683 5665 5661 5657 5647 5636 5622 5610 5600 5594 5588 5580 5572 5564 5559 5555 5552 5547 5540 5536 5531 5528 5525 5524 5521 5515 5513 5511 5509 5509 5510 5515 5521 5526 5530 5538 5547 5559 5569 5574
5665 5660 5665 5667 5682 5676 5664 5658 5670 5683 5668 5658 5654 5645 5633 5619 5608 5592 5582 5574 5566 5556 5548 5544 5539 5534 5527 5519 5516 5509 5504 5501 5498 5490 5486 5481 5477 5478 5478 5480 5483 5489 5495 5504 5511 5519 5528 5540 5556
5651 5670 5663 5657 5653 5640 5669 5636 5670 5665 5655 5648 5639 5628 5617 5606 5594 5584 5573 5564 5554 5542 5535 5528 5521 5517 5508 5500 5494 5486 5480 5475 5467 5462 5457 5453 5451 5451 5452 5456 5459 5464 5469 5476 5485 5494 5503 5511 5526
5651 5659 5652 5647 5637 5638 5643 5636 5658 5678 5642 5633 5625 5615 5610 5599 5585 5575 5562 5550 5543 5532 5522 5512 5506 5501 5489 5481 5474 5466 5457 5448 5443 5437 5434 5432 5432 5432 5434 5436 5439 5443 5448 5456 5463 5471 5479 5488 5499
5656 5640 5638 5631 5625 5609 5630 5633 5647 5656 5655 5634 5619 5612 5602 5584 5570 5560 5549 5539 5531 5519 5507 5499 5492 5485 5474 5465 5456 5448 5438 5430 5424 5419 5415 5413 5415 5417 5419 5421 5425 5430 5436 5443 5450 5457 5467 5475 5482
5633 5621 5602 5597 5598 5607 5644 5638 5648 5650 5645 5629 5612 5606 5593 5580 5565 5552 5543 5533 5520 5505 5494 5485 5478 5470 5460 5450 5442 5432 5422 5411 5404 5400 5399 5400 5401 5404 5407 5410 5415 5420 5424 5430 5438 5446 5455 5462 5470
5617 5614 5603 5593 5602 5618 5642 5620 5616 5633 5630 5619 5609 5595 5583 5571 5555 5545 5534 5517 5505 5492 5480 5470 5463 5455 5446 5437 5430 5420 5409 5398 5392 5386 5386 5388 5389 5392 5395 5399 5404 5409 5413 5419 5427 5436 5443 5452 5460
5612 5599 5616 5598 5607 5592 5610 5632 5614 5613 5604 5593 5584 5579 5570 5558 5549 5536 5520 5503 5490 5479 5467 5455 5448 5440 5432 5427 5419 5409 5398 5390 5383 5378 5375 5376 5376 5380 5385 5388 5393 5397 5401 5406 5415 5424 5433 5445 5452
5605 5611 5582 5581 5569 5571 5603 5612 5590 5586 5583 5579 5572 5569 5561 5555 5546 5531 5508 5490 5478 5464 5455 5440 5433 5424 5420 5417 5408 5398 5390 5383 5376 5371 5367 5365 5367 5372 5376 5380 5384 5389 5394 5398 5405 5412 5420 5431 5433
5591 5587 5588 5586 5581 5571 5573 5583 5582 5576 5580 5572 5569 5565 5556 5552 5536 5517 5492 5477 5460 5444 5438 5425 5419 5413 5408 5404 5397 5390 5383 5377 5373 5369 5365 5362 5363 5366 5369 5373 5377 5381 5386 5389 5395 5400 5405 5411 5414
5588 5580 5578 5555 5564 5573 5569 5567 5589 5578 5572 5566 5564 5563 5556 5542 5530 5496 5459 5450 5440 5428 5420 5414 5408 5402 5398 5393 5388 5383 5378 5374 5371 5367 5363 5362 5362 5363 5364 5367 5370 5374 5379 5382 5386 5391 5393 5397 5402